Simultaneous Nadir Overpasses (SNOs) Predictions

Prediction of SNOs between GOES-14 and AQUA Satellite Orbit:

Table of predicted SNOs for the next 14.0 days since TLE Epoch: 12/28/2018
Index Date Time (GOES-14) GOES-14 Lat,Lon AQUA Lat,Lon Distance(km) Time Diff (sec)
1 12/30/2018 08:35:43 -0.03,-104.28 0.07,-104.69 47.17 80
2 01/01/2019 08:20:52 -0.02,-104.29 -0.56,-101.73 290.00 80
3 01/01/2019 20:42:16 0.03,-104.06 -0.55,-106.92 325.54 80
4 01/03/2019 20:32:45 0.02,-104.07 0.07,-103.97 12.26 80
5 01/05/2019 20:20:33 0.02,-104.08 0.64,-101.00 349.42 80
6 01/06/2019 08:41:50 -0.03,-104.32 0.37,-106.17 210.79 80
7 01/08/2019 08:26:59 -0.02,-104.33 -0.26,-103.22 126.63 80
8 01/08/2019 20:48:21 0.03,-104.09 -0.92,-108.39 490.16 80
9 01/10/2019 08:14:48 -0.02,-104.34 -0.90,-100.26 464.18 80
10 01/10/2019 20:36:10 0.03,-104.10 -0.28,-105.44 152.42 80




NCC Satellite Simultaneous Nadir Overpasses (SNOs) Prediction Service
